Location: *
(42.2833°S, 167.3333°W)
Time: 04:29:47
(UTC+00:00)

Daily predictions for brighter satellites

Satellite Brightness Start Highest point End
(mag) Time Altitude Azimuth Time Altitude Azimuth Time Altitude Azimuth
USA 234 4.4 06:08:17 10° E 06:14:04 34° SSE 06:19:52 10° SW
CZ-2D R/B 3.3 06:13:12 10° SSE 06:17:09 63° E 06:21:01 10° N
CZ-2C R/B 3.6 06:15:02 10° SSE 06:20:18 43° E 06:25:44 10° N
PEGASUS R/B 4.4 06:20:40 10° SSE 06:23:06 46° WSW 06:25:21 10° NW
Cosmos 2322 Rocket 3.5 06:18:18 10° SW 06:23:37 42° WNW 06:28:55 10° N
Cosmos 1869 3.3 06:22:22 10° S 06:26:20 61° E 06:30:12 10° NNE
CZ-2C R/B 3.9 06:21:50 10° NNE 06:26:30 62° ESE 06:31:08 10° S
Cosmos 468 Rocket 4.1 06:23:08 10° SSW 06:28:34 86° WNW 06:33:52 10° NNE
SL-23 DEB 3.8 06:29:09 10° SW 06:33:42 73° SSE 06:36:32 13° ENE
Okean O Rocket 4.4 06:31:22 10° SSW 06:35:01 25° WSW 06:38:39 10° WNW
YAOGAN 1 2.6 06:34:29 10° SSE 06:38:53 64° ENE 06:43:11 10° N
Cosmos 1763 Rocket 3.8 06:35:01 10° SSW 06:40:24 76° WNW 06:45:44 10° NNE
Cosmos 2058 3.0 06:36:40 10° N 06:40:46 56° E 06:44:57 10° SSE
SL-08 ROCKET BODY 4.4 06:34:46 10° N 06:40:57 78° E 06:47:10 10° S
ARGOS 3.9 06:36:37 10° SSE 06:41:29 32° E 06:46:18 10° NNE
Cosmos 2322 3.7 06:35:47 10° SSW 06:41:34 77° ESE 06:47:15 10° NNE
Cosmos 2297 Rocket 3.6 06:38:33 11° NE 06:41:44 17° E 06:45:13 10° ESE
Molniya-1 3.6 06:40:54 10° SW 06:43:31 80° SE 06:51:03 10° NE
In-Cosmos 22 Rocket 4.3 06:38:27 10° N 06:44:11 87° E 06:50:07 10° S
HJ-1C 3.6 06:45:27 10° SSE 06:48:46 48° E 06:52:01 10° N
Cosmos 1892 2.9 06:46:32 10° NNW 06:50:25 77° W 06:54:20 10° S
Cosmos 405 3.1 06:48:51 10° S 06:52:22 55° ESE 06:55:06 16° NNE
X-37B 1.8 06:51:33 10° NNW 06:54:10 23° NNE 06:54:43 22° NE
H-2A R/B 2.0 06:51:35 10° SSE 06:56:40 61° E 07:01:48 10° N
Cosmos 2221 2.6 06:54:16 10° S 06:58:40 80° W 07:03:01 10° N
CSL-04 Rocket 3.8 06:53:16 10° SSE 06:58:44 59° E 07:04:12 10° N
Cosmos 1408 2.6 06:55:25 10° N 06:59:10 90° NE 07:02:59 10° S
Ariane Rocket 4.2 06:55:41 10° SE 06:59:40 22° E 07:01:13 19° ENE
Cosmos 1842 Rocket 4.0 06:56:34 10° SSW 07:01:06 68° W 07:05:35 10° N
Cosmos 1570 Rocket 4.0 06:56:30 10° SSW 07:01:54 79° ESE 07:06:22 15° NNE
Cosmos 540 Rocket 3.5 06:57:41 10° SSW 07:02:57 88° ESE 07:07:25 14° NNE
Nadezhda 1 Rocket 4.0 06:57:13 10° S 07:03:26 86° W 07:09:32 10° N
Lacrosse 5 rocket 4.2 07:01:58 10° SSW 07:03:35 12° S 07:05:10 10° SSE
Cosmos 1346 Rocket 2.7 07:01:47 10° N 07:05:49 86° E 07:09:54 10° S
Cosmos 841 Rocket 3.5 07:00:43 10° SSW 07:06:01 88° WNW 07:10:29 15° NNE
COSMOS 2428 2.7 07:00:38 10° SSW 07:06:25 77° ESE 07:10:42 18° NNE
SL-08 RB Rocket 4.1 07:03:28 10° SSE 07:07:50 40° E 07:10:53 18° NNE
Cosmos 2333 Rocket 2.3 07:02:01 10° SSW 07:07:51 82° WNW 07:12:45 15° NNE
Okean-O 3.6 07:03:30 10° S 07:07:53 52° WSW 07:12:14 10° NNW
Cosmos 2208 Rocket 4.0 07:03:26 10° SSW 07:08:49 75° ESE 07:12:36 19° NNE
Cosmos 2084 Rocket 3.3 07:04:40 10° SW 07:09:00 88° SE 07:11:24 25° NE
Helios 1A Rocket 4.4 07:05:43 10° S 07:09:41 41° WSW 07:13:38 10° NW
Cosmos 2219 3.9 07:06:03 10° NNE 07:10:59 32° ENE 07:16:00 10° SE
Cosmos 1825 2.1 07:09:02 10° N 07:12:50 81° E 07:16:41 10° S
USA 229 DEB 4.0 07:08:17 10° NW 07:16:02 88° SW 07:23:27 10° SE
USA 229 3.9 07:08:22 10° NW 07:16:07 89° SW 07:23:33 10° SE
Cosmos 1076 Rocket 3.6 07:12:39 10° N 07:17:01 79° W 07:21:28 10° S
Cosmos 2237 Rocket 3.0 07:11:50 10° S 07:17:11 38° ESE 07:19:55 24° ENE
SJ-6B 3.6 07:15:59 10° SE 07:19:25 30° E 07:19:30 30° E
USA 267 3.6 07:16:23 10° SE 07:22:57 69° SW 07:29:30 10° WNW
ISS -1.5 07:21:04 10° SW 07:23:44 20° SSE 07:25:45 13° SE
Cosmos 2360 Rocket 4.2 07:20:07 10° SW 07:24:38 24° WNW 07:29:06 10° NNW
USA 281 4.3 07:18:27 10° SSE 07:24:46 48° WSW 07:31:01 10° NW
Cosmos 1633 4.4 07:27:48 17° ESE 07:27:48 17° ESE 07:29:21 10° SE
CZ-4 R/B 3.6 07:24:05 10° S 07:27:47 29° WSW 07:31:23 10° NW
Cosmos 1980 4.1 07:22:34 10° SSW 07:28:06 48° ESE 07:30:35 30° ENE
H-2A R/B 3.5 07:25:46 24° N 07:28:13 81° WNW 07:32:26 10° SSW
NOSS 3-1 (A) 4.2 07:22:04 10° NNW 07:30:59 89° WSW 07:38:50 10° SE
Okean 3 Rocket 4.1 07:30:30 36° ENE 07:31:25 40° E 07:35:42 10° SSE
Cosmos 1766 Rocket 4.0 07:36:03 39° ENE 07:36:37 41° E 07:40:50 10° SSE
SL-16 R/B 3.6 07:38:30 10° S 07:43:07 24° SE 07:44:56 21° E
Cosmos 2227 Rocket 2.4 07:43:13 33° NNE 07:45:17 47° ENE 07:50:46 10° SE
MetOp-A 4.2 07:41:11 10° SSE 07:46:32 57° E 07:48:32 36° NNE
Cosmos 2184 Rocket 4.4 07:44:26 34° NE 07:46:41 46° E 07:52:45 10° SSE
Cosmos 1441 Rocket 4.3 07:51:25 31° SE 07:51:25 31° SE 07:53:54 10° SSE
USA 186 2.3 07:47:36 10° S 07:50:54 58° WSW 07:51:43 42° NW
Cosmos 2219 Rocket 3.3 07:46:25 10° SW 07:51:42 40° WNW 07:55:28 18° NNW
Cosmos 1606 2.6 07:48:29 10° S 07:52:21 85° W 07:52:49 67° N
Cosmos 1151 Rocket 3.3 07:49:20 10° S 07:53:39 49° ESE 07:53:48 48° E
MOS 1-B Rocket 4.4 07:49:59 29° NNE 07:54:19 78° ESE 08:01:03 10° SSW
USA 234 3.2 07:53:29 36° ENE 07:56:31 81° SE 08:03:09 10° SW
FREGAT/IRIS 4.5 07:55:04 10° S 07:56:10 22° S 07:56:10 22° S
SPOT 3 Rocket 4.2 07:56:02 10° SSE 08:00:20 36° E 08:00:20 36° E
NOSS 0 Rocket 4.1 07:59:16 10° SSW 08:05:27 66° WNW 08:07:59 36° N
Cosmos 2151 3.9 08:04:24 20° NW 08:07:02 46° WSW 08:11:14 10° S
Cosmos 2074 Rocket 3.9 08:04:49 41° NNE 08:07:05 69° E 08:13:23 10° SSE
Cosmos 1328 Rocket 3.6 08:03:24 10° S 08:07:54 63° E 08:07:54 63° E
Cosmos 389 Rocket 2.8 08:05:11 10° SSW 08:08:27 68° SSW 08:08:27 68° SSW
Cosmos 1933 3.3 08:04:57 10° S 08:09:05 87° SE 08:09:05 87° SE
Resurs 01 Rocket 2.9 08:05:16 10° SSE 08:08:03 29° ESE 08:08:03 29° ESE
OBJECT-B 2.0 08:08:50 10° S 08:11:02 39° S 08:11:02 39° S
Meteor 2-17 Rocket 4.4 08:11:27 30° NNW 08:14:40 84° W 08:20:56 10° S
Cosmos 1408 Rocket 3.9 08:15:31 52° SE 08:15:31 52° SE 08:19:11 10° SSE
Cosmos 2181 Rocket 4.4 08:11:32 10° SSW 08:17:39 61° W 08:20:43 30° NNW
Cosmos 836 Rocket 4.4 08:16:03 10° SSW 08:21:21 84° WNW 08:22:01 68° N
SL-8 R/B 4.3 08:19:54 10° NW 08:23:16 45° NW 08:23:16 45° NW
Cosmos 2297 Rocket 2.4 08:20:06 13° NNW 08:25:06 70° WSW 08:30:49 10° SSE
Cosmos 1782 3.6 08:24:01 10° S 08:27:04 45° SSE 08:27:04 45° SSE
Cosmos 1932 4.5 08:23:01 10° SW 08:29:21 77° WNW 08:30:38 58° N
Cosmos 968 Rocket 4.3 08:26:44 14° NW 08:31:02 48° WSW 08:36:03 10° S
Ariane Rocket 3.9 08:33:54 10° S 08:38:49 46° WSW 08:41:24 25° NW
Cosmos 1515 Rocket 4.1 08:37:41 10° S 08:41:22 58° S 08:41:22 58° S
Lacrosse 5 rocket 3.6 08:41:18 10° SSW 08:44:20 18° SSE 08:45:00 18° SE
Cosmos 2154 Rocket 3.9 08:46:28 68° N 08:47:25 88° E 08:53:53 10° S
Meteor 2-6 Rocket 4.4 08:43:03 10° S 08:48:39 63° ESE 08:48:39 63° ESE
Meteor 2-3 Rocket 4.5 08:46:37 31° NW 08:49:08 50° WSW 08:54:52 10° S
Cosmos 773 Rocket 4.4 08:47:14 10° SSW 08:51:44 54° SE 08:51:44 54° SE
Nadezhda 3 Rocket 3.8 08:46:57 10° S 08:53:14 89° E 08:53:37 80° NNE
Cosmos 2219 4.5 08:49:42 10° NW 08:55:00 38° WSW 09:00:21 10° S
MetOp-B 4.5 08:55:32 10° SSE 08:59:58 58° SE 08:59:58 58° SE
ISS -0.9 08:57:36 10° SW 08:58:41 19° SW 08:58:41 19° SW
Cosmos 2237 Rocket 3.3 08:56:04 10° SW 09:01:08 33° WNW 09:01:45 32° WNW
SeaSat 1 3.0 08:56:18 10° SSE 09:00:08 54° SSE 09:00:08 54° SSE
USA 81 4.3 09:04:04 64° SSE 09:04:04 64° SSE 09:08:36 10° S
Cosmos 2082 3.8 09:03:44 73° W 09:03:53 74° WSW 09:09:36 10° SSE
Cosmos 2228 Rocket 4.3 09:00:28 10° S 09:03:23 39° S 09:03:23 39° S
Meteor 1-10 Rocket 4.4 09:03:41 10° S 09:09:05 71° SE 09:09:05 71° SE
Cosmos 1867 3.9 09:07:25 10° SW 09:11:58 63° SW 09:11:58 63° SW
Cosmos 1943 4.5 09:11:17 10° S 09:16:02 30° SE 09:16:02 30° SE
CENTAUR R/B 3.9 09:21:44 10° SSW 09:26:27 23° SE 09:27:34 22° SE
ERS-1 Rocket 4.4 09:22:25 10° SSE 09:25:08 30° SE 09:25:08 30° SE
SL-16 R/B 2.8 09:21:59 10° SSW 09:26:49 52° WSW 09:26:49 52° WSW
Thor Agena Rocket 4.2 09:30:50 51° SSW 09:30:50 51° SSW 09:34:41 10° SSW
Cosmos 2227 Rocket 4.0 09:24:52 11° WNW 09:29:33 28° SW 09:34:28 10° S
Cosmos 2263 Rocket 3.5 09:38:43 31° SE 09:38:43 31° SE 09:41:40 10° SSE
Meteor 1-27 Rocket 4.2 09:32:27 10° S 09:37:29 63° S 09:37:29 63° S
Resurs 01 Rocket 3.7 09:42:12 10° SSW 09:45:38 23° WSW 09:45:38 23° WSW
USA 238 DEB 4.0 09:55:01 10° SSW 10:01:45 57° SE 10:01:45 57° SE
USA 238 4.0 09:55:06 10° SSW 10:01:51 57° SE 10:01:51 57° SE
Gbstr 26 Del rocket 4.3 10:03:22 73° SSE 10:03:22 73° SSE 10:09:28 10° SE
Terra 3.5 09:59:36 10° SSE 10:01:59 29° SSE 10:01:59 29° SSE
NOSS 3-2 (A) 3.9 10:00:24 10° SSW 10:05:48 55° S 10:05:48 55° S
Cosmos 2218 Rocket 4.4 10:08:52 58° SW 10:08:52 58° SW 10:14:11 10° S
SPOT 5 4.2 10:15:41 10° S 10:19:23 41° SSW 10:19:23 41° SSW
Lacrosse 5 rocket 4.2 10:19:58 10° SW 10:20:36 14° SW 10:20:36 14° SW
SJ 16-02 3.7 10:32:46 22° S 10:32:46 22° S 10:34:33 10° S
Resurs 1-4 Rocket 4.1 10:33:49 19° ESE 10:33:49 19° ESE 10:37:15 10° SSE
CZ-2D R/B 3.8 10:50:36 27° SE 10:50:36 27° SE 10:54:42 10° S
Cosmos 2344 4.3 10:41:49 10° SW 10:55:56 79° WNW 10:57:38 68° N
NOSS 3-4 (A) 4.0 11:07:30 80° ESE 11:07:30 80° ESE 11:14:57 10° SE
NOSS 3-4 (C) 4.0 11:07:36 80° ESE 11:07:36 80° ESE 11:15:02 10° SE
NOSS 3-2 (C) 4.3 11:01:19 10° SW 11:05:30 41° SW 11:05:30 41° SW
Cosmos 1844 Rocket 3.9 11:11:39 38° SE 11:11:39 38° SE 11:15:05 10° SSE
Cosmos 1934 Rocket 4.4 11:18:14 59° S 11:18:14 59° S 11:23:23 10° S
CENTAUR R/B 3.7 11:11:59 10° SW 11:14:43 28° SW 11:14:43 28° SW
CZ-4C R/B 3.7 11:19:41 41° E 11:19:41 41° E 11:25:16 10° SE
Cosmos 2263 Rocket 3.9 11:20:22 24° SW 11:20:25 24° SW 11:24:58 10° S
ATLAS 2AS CENTAUR R/B 3.0 11:28:23 55° SSE 11:28:23 55° SSE 11:33:12 10° SE
Terra 4.4 11:39:26 10° SW 11:40:53 12° SW 11:40:53 12° SW
Lacrosse 4 Rocket 3.9 11:42:41 10° SSW 11:44:06 20° SSW 11:44:06 20° SSW
Cosmos 1833 Rocket 4.5 11:47:51 10° S 11:52:37 27° SE 11:55:02 20° E
COSMOS 2455 4.0 11:54:29 34° E 11:54:29 34° E 11:58:45 10° SE
